METEOSAT-9 (MSG-2)

Last updated on Thu Mar 05 2026 00:02:30 GMT+0000 (Coordinated Universal Time)

1 28912U 05049B 26063.09473407 .00000115 00000+0 00000+0 0 9996 2 28912 9.1243 55.1851 0001795 221.3911 325.1022 1.00277093 5941
UTC large
Height (km)
Speed (km/s)
/
Latitude / Longitude
Inclination (degrees)
Orbital Period (minutes)
Azimuth
Elevation
Range (km)
Doppler Factor

Next 0 passes for location: London (51.5072 / 0.1276)

Sorry there are no passes over London.